Location: Newark
(33.6333°S, 78.8500°W)
Time: 14:16:03
(UTC+00:00)

Courier 1B - Pass Details

Date: 22 September 2019
Orbit: 962 x 1209 km, 28.3° (Epoch: 22 October)

Event Time Altitude Azimuth Distance (km) Brightness Sun altitude
Rises 19:39:25 0° 334° (NNW) 4,097 11.4 41.0°
Reaches altitude 10° 19:43:33 10° 354° (N) 3,129 10.8 40.3°
Maximum altitude 19:48:03 16° 29° (NNE) 2,656 10.0 39.5°
Drops below altitude 10° 19:52:29 10° 65° (ENE) 3,082 10.0 38.7°
Sets 19:56:29 0° 84° (E) 4,007 10.3 38.0°
